Location: Newark
(18.0634°N, 63.0549°W)
Time: 09:09:55
(UTC+00:00)

OTV 5 (USA 277) - Pass Details

Date: 24 October 2019
Orbit: 310 x 324 km, 54.5° (Epoch: 17 October)

Event Time Altitude Azimuth Distance (km) Brightness Sun altitude
Rises 22:05:40 0° 191° (S) 2,031 ? -5.8°
Reaches altitude 10° 22:07:54 10° 173° (S) 1,208 ? -6.3°
Maximum altitude 22:09:58 20° 122° (ESE) 813 ? -6.8°
Drops below altitude 10° 22:12:02 10° 72° (ENE) 1,216 ? -7.3°
Enters shadow 22:12:07 10° 71° (ENE) 1,242 ? -7.3°
